^^
Station Historical Data
Daily Summary for May 17, 2019 Units:  English    Metric   Both
« Previous Day
Next Day »
Daily Weekly Monthly Yearly Custom
  High: Low: Average:
Temperature: 50.2 °F 39.2 °F 44.3 °F
Dew Point: 38.6 °F 29.2 °F 34.5 °F
Humidity: 87% 50% 69%
Wind Speed: 28mph 3mph 13.1mph
Wind Gust: 38mph - -
Wind- - ENE
Pressure: 29.90 in 29.64 in -
Precipitation: 0.36 in    
Historical Graphs
 
 
Tabular Data for May 17, 2019
Time Temperature Dew Point Pressure Wind Wind Speed Wind Gust Humidity Rainfall Rate (Hourly) solar Conditions
00:04 50.2 °F 32.3 °F 29.83 in ENE 10 mph 18 mph 50% 0 in 0.00 W/m2
00:09 50.1 °F 32.2 °F 29.83 in ENE 6 mph 18 mph 50% 0 in 0.00 W/m2
00:14 50.1 °F 32.7 °F 29.83 in ENE 8 mph 17 mph 51% 0 in 0.00 W/m2
00:19 50.1 °F 32.7 °F 29.83 in ENE 12 mph 17 mph 51% 0 in 0.00 W/m2
00:24 50 °F 32.6 °F 29.84 in East 5 mph 17 mph 51% 0 in 0.00 W/m2
00:29 49.9 °F 32.5 °F 29.84 in ENE 5 mph 17 mph 51% 0 in 0.00 W/m2
00:34 49.9 °F 32.5 °F 29.83 in East 11 mph 17 mph 51% 0 in 0.00 W/m2
00:39 49.7 °F 32.8 °F 29.84 in ENE 8 mph 17 mph 52% 0 in 0.00 W/m2
00:44 49.6 °F 32.7 °F 29.83 in ENE 8 mph 18 mph 52% 0 in 0.00 W/m2
00:49 49.4 °F 33 °F 29.83 in ENE 6 mph 18 mph 53% 0 in 0.00 W/m2
00:54 49.2 °F 32.8 °F 29.83 in ENE 17 mph 19 mph 53% 0 in 0.00 W/m2
00:59 49.1 °F 32.7 °F 29.83 in ENE 15 mph 19 mph 53% 0 in 0.00 W/m2
01:04 49 °F 32.6 °F 29.83 in ENE 11 mph 18 mph 53% 0 in 0.00 W/m2
01:09 48.7 °F 32.8 °F 29.83 in ENE 14 mph 18 mph 54% 0 in 0.00 W/m2
01:14 48.5 °F 33.1 °F 29.83 in East 15 mph 18 mph 55% 0 in 0.00 W/m2
01:19 48.2 °F 32.8 °F 29.83 in East 16 mph 22 mph 55% 0 in 0.00 W/m2
01:24 48.1 °F 33.1 °F 29.83 in East 12 mph 22 mph 56% 0 in 0.00 W/m2
01:29 47.8 °F 33.3 °F 29.82 in ENE 13 mph 18 mph 57% 0 in 0.00 W/m2
01:34 47.5 °F 33.4 °F 29.83 in ENE 12 mph 21 mph 58% 0 in 0.00 W/m2
01:39 47.2 °F 33.6 °F 29.82 in ENE 13 mph 21 mph 59% 0 in 0.00 W/m2
01:44 47 °F 33.4 °F 29.82 in ENE 17 mph 19 mph 59% 0 in 0.00 W/m2
01:49 46.8 °F 33.6 °F 29.81 in ENE 14 mph 21 mph 60% 0 in 0.00 W/m2
01:54 46.5 °F 33.4 °F 29.82 in ENE 12 mph 21 mph 60% 0 in 0.00 W/m2
01:59 46.4 °F 33.3 °F 29.82 in ENE 11 mph 19 mph 60% 0 in 0.00 W/m2
02:04 46.3 °F 33.2 °F 29.82 in East 16 mph 19 mph 60% 0 in 0.00 W/m2
02:09 46.1 °F 33 °F 29.82 in ENE 17 mph 20 mph 60% 0 in 0.00 W/m2
02:14 45.9 °F 32.8 °F 29.82 in ENE 17 mph 20 mph 60% 0 in 0.00 W/m2
02:19 45.8 °F 33.1 °F 29.81 in ENE 8 mph 20 mph 61% 0 in 0.00 W/m2
02:24 45.7 °F 33.4 °F 29.82 in ENE 9 mph 20 mph 62% 0 in 0.00 W/m2
02:29 45.5 °F 33.2 °F 29.82 in ENE 11 mph 20 mph 62% 0 in 0.00 W/m2
02:34 45.4 °F 33.1 °F 29.81 in NE 9 mph 20 mph 62% 0 in 0.00 W/m2
02:39 45.3 °F 33.4 °F 29.81 in ENE 12 mph 20 mph 63% 0 in 0.00 W/m2
02:44 45.1 °F 33.6 °F 29.82 in East 12 mph 20 mph 64% 0 in 0.00 W/m2
02:49 45 °F 33.5 °F 29.82 in East 10 mph 23 mph 64% 0 in 0.00 W/m2
02:54 45.1 °F 33.6 °F 29.82 in East 15 mph 23 mph 64% 0 in 0.00 W/m2
02:59 45.1 °F 33.2 °F 29.82 in ENE 11 mph 23 mph 63% 0 in 0.00 W/m2
03:04 45.1 °F 33.2 °F 29.82 in ENE 14 mph 23 mph 63% 0 in 0.00 W/m2
03:09 45 °F 33.2 °F 29.82 in ENE 10 mph 24 mph 63% 0 in 0.00 W/m2
03:14 45 °F 32.8 °F 29.82 in ENE 10 mph 24 mph 62% 0 in 0.00 W/m2
03:19 44.9 °F 32.7 °F 29.82 in East 14 mph 24 mph 62% 0 in 0.00 W/m2
03:24 44.8 °F 33 °F 29.82 in ENE 16 mph 24 mph 63% 0 in 0.00 W/m2
03:29 44.7 °F 32.9 °F 29.81 in ENE 15 mph 23 mph 63% 0 in 0.00 W/m2
03:34 44.5 °F 32.7 °F 29.81 in East 16 mph 20 mph 63% 0 in 0.00 W/m2
03:39 44.4 °F 32.6 °F 29.81 in East 11 mph 20 mph 63% 0 in 0.00 W/m2
03:44 44.2 °F 32.4 °F 29.80 in ENE 12 mph 21 mph 63% 0 in 0.00 W/m2
03:49 44.1 °F 32.3 °F 29.80 in NE 18 mph 21 mph 63% 0 in 0.00 W/m2
03:54 44 °F 32.2 °F 29.79 in ENE 9 mph 25 mph 63% 0 in 0.00 W/m2
03:59 44 °F 32.2 °F 29.80 in ENE 10 mph 25 mph 63% 0 in 0.00 W/m2
04:04 43.8 °F 32 °F 29.80 in NE 7 mph 25 mph 63% 0 in 0.00 W/m2
04:09 43.8 °F 32 °F 29.79 in East 16 mph 25 mph 63% 0 in 0.00 W/m2
04:14 43.7 °F 31.9 °F 29.79 in East 12 mph 20 mph 63% 0 in 0.00 W/m2
04:19 43.6 °F 31.8 °F 29.79 in ENE 9 mph 20 mph 63% 0 in 0.00 W/m2
04:24 43.6 °F 31.8 °F 29.79 in NE 14 mph 20 mph 63% 0 in 0.00 W/m2
04:29 43.6 °F 31.8 °F 29.79 in East 18 mph 22 mph 63% 0 in 0.00 W/m2
04:34 43.5 °F 31.7 °F 29.79 in ENE 22 mph 24 mph 63% 0 in 0.00 W/m2
04:39 43.5 °F 31.3 °F 29.79 in East 14 mph 24 mph 62% 0 in 0.00 W/m2
04:44 43.5 °F 31.3 °F 29.80 in ENE 15 mph 24 mph 62% 0 in 0.00 W/m2
04:49 43.5 °F 31.3 °F 29.81 in East 11 mph 24 mph 62% 0 in 0.00 W/m2
04:54 43.5 °F 31.3 °F 29.82 in ENE 11 mph 20 mph 62% 0 in 0.00 W/m2
04:59 43.5 °F 31.3 °F 29.85 in East 9 mph 20 mph 62% 0 in 0.00 W/m2
05:04 43.5 °F 31.7 °F 29.87 in ESE 9 mph 20 mph 63% 0 in 0.00 W/m2
05:09 43.5 °F 32.1 °F 29.88 in SE 8 mph 20 mph 64% 0 in 0.00 W/m2
05:14 43.6 °F 32.6 °F 29.88 in SE 8 mph 12 mph 65% 0 in 0.00 W/m2
05:19 43.5 °F 32.9 °F 29.88 in SE 9 mph 11 mph 66% 0 in 0.00 W/m2
05:24 43.4 °F 33.2 °F 29.89 in ESE 10 mph 13 mph 67% 0 in 0.00 W/m2
05:29 43.4 °F 33.5 °F 29.90 in SE 8 mph 13 mph 68% 0 in 0.00 W/m2
05:34 43.3 °F 32.7 °F 29.90 in ESE 13 mph 17 mph 66% 0 in 0.00 W/m2
05:39 43.3 °F 32.3 °F 29.90 in East 6 mph 17 mph 65% 0 in 0.00 W/m2
05:44 43.2 °F 32.2 °F 29.90 in ESE 6 mph 17 mph 65% 0 in 0.00 W/m2
05:49 43.1 °F 32.5 °F 29.90 in East 10 mph 17 mph 66% 0 in 0.00 W/m2
05:54 43.1 °F 32.9 °F 29.90 in East 9 mph 13 mph 67% 0 in 0.00 W/m2
05:59 43.1 °F 32.9 °F 29.89 in ENE 10 mph 13 mph 67% 0 in 0.00 W/m2
06:04 42.9 °F 33.1 °F 29.89 in East 9 mph 14 mph 68% 0 in 0.00 W/m2
06:09 42.7 °F 32.9 °F 29.89 in ESE 13 mph 17 mph 68% 0 in 0.00 W/m2
06:14 42.4 °F 33.3 °F 29.89 in ENE 9 mph 17 mph 70% 0 in 0.00 W/m2
06:19 42 °F 33.3 °F 29.89 in East 15 mph 17 mph 71% 0 in 0.00 W/m2
06:24 41.7 °F 33.3 °F 29.89 in East 9 mph 18 mph 72% 0 in 0.00 W/m2
06:29 41.6 °F 33.2 °F 29.89 in ESE 9 mph 18 mph 72% 0 in 0.00 W/m2
06:34 41.6 °F 33.2 °F 29.88 in East 15 mph 18 mph 72% 0 in 0.00 W/m2
06:39 41.6 °F 32.9 °F 29.88 in East 15 mph 19 mph 71% 0 in 5.00 W/m2
06:44 41.5 °F 32.8 °F 29.88 in East 17 mph 19 mph 71% 0 in 5.00 W/m2
06:49 41.3 °F 33 °F 29.88 in East 12 mph 19 mph 72% 0 in 7.00 W/m2
06:54 41.2 °F 32.9 °F 29.87 in NE 12 mph 19 mph 72% 0 in 9.00 W/m2
06:59 41 °F 33 °F 29.87 in East 9 mph 17 mph 73% 0 in 9.00 W/m2
07:04 40.8 °F 32.8 °F 29.86 in ENE 14 mph 19 mph 73% 0 in 11.00 W/m2
07:09 40.7 °F 32.7 °F 29.86 in East 13 mph 19 mph 73% 0 in 11.00 W/m2
07:14 40.6 °F 33 °F 29.86 in ENE 9 mph 18 mph 74% 0 in 12.00 W/m2
07:19 40.5 °F 32.9 °F 29.85 in East 14 mph 21 mph 74% 0 in 12.00 W/m2
07:24 40.3 °F 33 °F 29.84 in East 19 mph 21 mph 75% 0 in 12.00 W/m2
07:29 40 °F 33 °F 29.84 in East 10 mph 21 mph 76% 0 in 14.00 W/m2
07:34 39.8 °F 32.8 °F 29.84 in ENE 15 mph 21 mph 76% 0.01 in 18.00 W/m2
07:39 39.6 °F 33.3 °F 29.83 in ESE 12 mph 24 mph 78% 0.01 in 25.00 W/m2
07:44 39.4 °F 33.4 °F 29.83 in East 11 mph 24 mph 79% 0.01 in 32.00 W/m2
07:49 39.3 °F 33.3 °F 29.82 in ENE 13 mph 24 mph 79% 0.02 in 39.00 W/m2
07:54 39.2 °F 33.2 °F 29.82 in ENE 15 mph 24 mph 79% 0.02 in 40.00 W/m2
07:59 39.2 °F 32.9 °F 29.82 in ENE 16 mph 23 mph 78% 0.02 in 44.00 W/m2
08:04 39.3 °F 32.7 °F 29.82 in ENE 11 mph 23 mph 77% 0.02 in 46.00 W/m2
08:09 39.3 °F 32.7 °F 29.82 in ENE 17 mph 23 mph 77% 0.02 in 39.00 W/m2
08:14 39.3 °F 32.4 °F 29.82 in ENE 17 mph 23 mph 76% 0.02 in 33.00 W/m2
08:19 39.2 °F 31.6 °F 29.83 in ENE 13 mph 24 mph 74% 0.02 in 33.00 W/m2
08:24 39.2 °F 31.3 °F 29.83 in NE 18 mph 24 mph 73% 0.02 in 39.00 W/m2
08:29 39.2 °F 30.9 °F 29.83 in NE 15 mph 25 mph 72% 0.02 in 62.00 W/m2
08:34 39.3 °F 31 °F 29.84 in East 13 mph 25 mph 72% 0.01 in 69.00 W/m2
08:39 39.3 °F 30.7 °F 29.84 in East 13 mph 21 mph 71% 0.01 in 76.00 W/m2
08:44 39.3 °F 30.3 °F 29.85 in ENE 14 mph 21 mph 70% 0.01 in 72.00 W/m2
08:49 39.2 °F 29.5 °F 29.85 in East 14 mph 21 mph 68% 0 in 72.00 W/m2
08:54 39.2 °F 29.5 °F 29.85 in East 13 mph 19 mph 68% 0 in 77.00 W/m2
08:59 39.2 °F 29.2 °F 29.85 in ENE 15 mph 21 mph 67% 0 in 65.00 W/m2
09:04 39.2 °F 29.9 °F 29.85 in NE 9 mph 22 mph 69% 0 in 79.00 W/m2
09:09 39.2 °F 29.9 °F 29.85 in ENE 14 mph 22 mph 69% 0 in 84.00 W/m2
09:14 39.3 °F 30 °F 29.85 in ENE 13 mph 22 mph 69% 0 in 95.00 W/m2
09:19 39.3 °F 30.7 °F 29.85 in ENE 13 mph 22 mph 71% 0 in 93.00 W/m2
09:24 39.3 °F 30.7 °F 29.85 in ENE 15 mph 20 mph 71% 0 in 91.00 W/m2
09:29 39.5 °F 31.2 °F 29.84 in ENE 13 mph 20 mph 72% 0 in 104.00 W/m2
09:34 39.5 °F 30.9 °F 29.84 in ENE 15 mph 22 mph 71% 0 in 97.00 W/m2
09:39 39.5 °F 31.2 °F 29.84 in NE 15 mph 22 mph 72% 0 in 86.00 W/m2
09:44 39.5 °F 31.6 °F 29.84 in ENE 9 mph 20 mph 73% 0 in 90.00 W/m2
09:49 39.5 °F 31.6 °F 29.84 in ENE 10 mph 20 mph 73% 0 in 90.00 W/m2
09:54 39.5 °F 31.9 °F 29.84 in East 17 mph 20 mph 74% 0.01 in 90.00 W/m2
09:59 39.5 °F 32.2 °F 29.84 in ENE 10 mph 19 mph 75% 0.01 in 98.00 W/m2
10:04 39.6 °F 32.3 °F 29.85 in East 19 mph 19 mph 75% 0.01 in 109.00 W/m2
10:09 39.7 °F 32.4 °F 29.84 in East 12 mph 19 mph 75% 0.01 in 114.00 W/m2
10:14 39.8 °F 32.5 °F 29.85 in ENE 8 mph 19 mph 75% 0.01 in 118.00 W/m2
10:19 40 °F 32.7 °F 29.85 in ENE 9 mph 17 mph 75% 0.01 in 107.00 W/m2
10:24 40.2 °F 33.2 °F 29.85 in ENE 4 mph 17 mph 76% 0.01 in 97.00 W/m2
10:29 40.4 °F 33.4 °F 29.85 in NE 6 mph 17 mph 76% 0.01 in 97.00 W/m2
10:34 40.4 °F 33.4 °F 29.85 in ENE 13 mph 17 mph 76% 0.01 in 90.00 W/m2
10:39 40.5 °F 33.5 °F 29.85 in ENE 8 mph 17 mph 76% 0.01 in 81.00 W/m2
10:44 40.6 °F 33.6 °F 29.85 in ENE 10 mph 17 mph 76% 0.01 in 88.00 W/m2
10:49 40.8 °F 33.8 °F 29.84 in NE 12 mph 16 mph 76% 0.01 in 127.00 W/m2
10:54 41 °F 35.6 °F 29.84 in NNE 12 mph 19 mph 81% 0 in 141.00 W/m2
10:59 41.2 °F 34.5 °F 29.84 in NE 15 mph 19 mph 77% 0 in 142.00 W/m2
11:04 41.5 °F 35.2 °F 29.84 in NE 12 mph 19 mph 78% 0 in 135.00 W/m2
11:09 41.7 °F 35.3 °F 29.84 in ENE 12 mph 19 mph 78% 0 in 130.00 W/m2
11:14 41.8 °F 35.1 °F 29.84 in ENE 19 mph 19 mph 77% 0 in 127.00 W/m2
11:19 42 °F 35.6 °F 29.84 in ENE 10 mph 19 mph 78% 0 in 153.00 W/m2
11:24 42.2 °F 35.5 °F 29.83 in ENE 17 mph 19 mph 77% 0 in 176.00 W/m2
11:29 42.3 °F 35.3 °F 29.83 in NE 9 mph 19 mph 76% 0 in 197.00 W/m2
11:34 42.7 °F 35.7 °F 29.84 in ENE 11 mph 22 mph 76% 0 in 216.00 W/m2
11:39 43.1 °F 35.7 °F 29.84 in NE 13 mph 22 mph 75% 0 in 195.00 W/m2
11:44 43.4 °F 36.3 °F 29.83 in ENE 11 mph 20 mph 76% 0 in 207.00 W/m2
11:49 43.7 °F 36.6 °F 29.83 in ENE 11 mph 20 mph 76% 0 in 213.00 W/m2
11:54 43.8 °F 36.4 °F 29.84 in ENE 8 mph 20 mph 75% 0 in 200.00 W/m2
11:59 43.9 °F 36.1 °F 29.84 in ENE 11 mph 20 mph 74% 0 in 178.00 W/m2
12:04 43.9 °F 35.8 °F 29.84 in ENE 8 mph 20 mph 73% 0 in 169.00 W/m2
12:09 43.9 °F 35.8 °F 29.84 in ENE 10 mph 20 mph 73% 0 in 167.00 W/m2
12:14 44 °F 35.9 °F 29.84 in ENE 9 mph 20 mph 73% 0 in 146.00 W/m2
12:19 44 °F 35.9 °F 29.84 in ENE 15 mph 20 mph 73% 0 in 155.00 W/m2
12:24 44.1 °F 35.6 °F 29.84 in ENE 9 mph 18 mph 72% 0 in 158.00 W/m2
12:29 44.1 °F 35.6 °F 29.84 in ENE 14 mph 20 mph 72% 0 in 165.00 W/m2
12:34 44.2 °F 35.7 °F 29.84 in ENE 4 mph 20 mph 72% 0 in 169.00 W/m2
12:39 44.5 °F 36.4 °F 29.83 in NE 11 mph 18 mph 73% 0 in 200.00 W/m2
12:44 44.6 °F 36.5 °F 29.83 in ENE 11 mph 20 mph 73% 0 in 234.00 W/m2
12:49 44.9 °F 36.4 °F 29.83 in ENE 15 mph 20 mph 72% 0 in 265.00 W/m2
12:54 45.2 °F 36.7 °F 29.83 in East 11 mph 21 mph 72% 0 in 272.00 W/m2
12:59 45.1 °F 35.9 °F 29.82 in ENE 19 mph 22 mph 70% 0 in 267.00 W/m2
13:04 45.1 °F 35.5 °F 29.83 in ESE 12 mph 22 mph 69% 0 in 264.00 W/m2
13:09 45.3 °F 35.7 °F 29.84 in East 8 mph 22 mph 69% 0 in 234.00 W/m2
13:14 45.2 °F 35.3 °F 29.84 in ENE 16 mph 22 mph 68% 0 in 234.00 W/m2
13:19 45.4 °F 35.5 °F 29.83 in ENE 17 mph 22 mph 68% 0 in 271.00 W/m2
13:24 45.7 °F 35.7 °F 29.83 in ENE 17 mph 22 mph 68% 0 in 274.00 W/m2
13:29 46 °F 35.3 °F 29.83 in ENE 15 mph 23 mph 66% 0 in 279.00 W/m2
13:34 46.2 °F 35.8 °F 29.83 in ENE 15 mph 23 mph 67% 0 in 199.00 W/m2
13:39 45.8 °F 34.7 °F 29.82 in NE 9 mph 25 mph 65% 0 in 244.00 W/m2
13:44 45.9 °F 34.8 °F 29.82 in ENE 12 mph 25 mph 65% 0 in 232.00 W/m2
13:49 46 °F 34.5 °F 29.83 in NE 18 mph 23 mph 64% 0 in 262.00 W/m2
13:54 46.2 °F 35.1 °F 29.83 in ENE 6 mph 23 mph 65% 0 in 338.00 W/m2
13:59 46.7 °F 35.6 °F 29.83 in NE 12 mph 20 mph 65% 0 in 376.00 W/m2
14:04 46.7 °F 34.8 °F 29.83 in East 12 mph 21 mph 63% 0 in 318.00 W/m2
14:09 46.9 °F 35.4 °F 29.82 in ENE 11 mph 23 mph 64% 0 in 267.00 W/m2
14:14 46.8 °F 34.9 °F 29.82 in ENE 9 mph 23 mph 63% 0 in 206.00 W/m2
14:19 46.7 °F 34.8 °F 29.82 in ENE 16 mph 24 mph 63% 0 in 151.00 W/m2
14:24 46.6 °F 33.9 °F 29.82 in East 10 mph 24 mph 61% 0 in 121.00 W/m2
14:29 46.4 °F 33.7 °F 29.82 in ENE 15 mph 22 mph 61% 0 in 109.00 W/m2
14:34 46.2 °F 33.1 °F 29.81 in ENE 16 mph 22 mph 60% 0 in 121.00 W/m2
14:39 46.2 °F 33.5 °F 29.81 in ENE 20 mph 25 mph 61% 0 in 155.00 W/m2
14:44 46.4 °F 33.7 °F 29.81 in NE 16 mph 25 mph 61% 0 in 176.00 W/m2
14:49 46.5 °F 33.4 °F 29.80 in ENE 11 mph 27 mph 60% 0 in 178.00 W/m2
14:54 46.7 °F 34 °F 29.80 in NE 11 mph 27 mph 61% 0 in 149.00 W/m2
14:59 46.7 °F 33.5 °F 29.80 in ENE 11 mph 25 mph 60% 0 in 134.00 W/m2
15:04 46.8 °F 34 °F 29.80 in ENE 14 mph 25 mph 61% 0 in 116.00 W/m2
15:09 46.8 °F 33.6 °F 29.79 in NE 17 mph 25 mph 60% 0 in 165.00 W/m2
15:14 47 °F 34.2 °F 29.78 in ENE 18 mph 25 mph 61% 0 in 243.00 W/m2
15:19 47.4 °F 33.8 °F 29.78 in ENE 18 mph 25 mph 59% 0 in 306.00 W/m2
15:24 47.7 °F 33.2 °F 29.77 in NNE 17 mph 27 mph 57% 0 in 260.00 W/m2
15:29 48 °F 33.9 °F 29.77 in ENE 16 mph 27 mph 58% 0 in 211.00 W/m2
15:34 47.8 °F 33.7 °F 29.78 in NE 14 mph 31 mph 58% 0 in 207.00 W/m2
15:39 47.8 °F 33.3 °F 29.77 in ENE 19 mph 31 mph 57% 0 in 213.00 W/m2
15:44 47.9 °F 33.8 °F 29.77 in NE 23 mph 31 mph 58% 0 in 213.00 W/m2
15:49 48 °F 34.3 °F 29.78 in NE 16 mph 30 mph 59% 0 in 276.00 W/m2
15:54 48.2 °F 34.5 °F 29.78 in ENE 18 mph 31 mph 59% 0 in 274.00 W/m2
15:59 48.2 °F 35.4 °F 29.78 in ENE 18 mph 31 mph 61% 0 in 221.00 W/m2
16:04 48.1 °F 33.6 °F 29.78 in NE 12 mph 25 mph 57% 0 in 185.00 W/m2
16:09 48.2 °F 35.4 °F 29.77 in NE 19 mph 28 mph 61% 0 in 197.00 W/m2
16:14 48.3 °F 34.2 °F 29.77 in SE 13 mph 28 mph 58% 0 in 178.00 W/m2
16:19 48.4 °F 33.4 °F 29.77 in ENE 11 mph 28 mph 56% 0 in 158.00 W/m2
16:24 48.3 °F 32.9 °F 29.76 in ENE 20 mph 28 mph 55% 0 in 135.00 W/m2
16:29 48.4 °F 33.4 °F 29.75 in East 15 mph 28 mph 56% 0 in 149.00 W/m2
16:34 48.5 °F 33.1 °F 29.75 in ENE 15 mph 28 mph 55% 0 in 127.00 W/m2
16:39 48.4 °F 33.4 °F 29.75 in ENE 19 mph 28 mph 56% 0 in 109.00 W/m2
16:44 48.4 °F 33.4 °F 29.75 in East 13 mph 27 mph 56% 0 in 84.00 W/m2
16:49 48.3 °F 33.3 °F 29.75 in ENE 16 mph 29 mph 56% 0 in 67.00 W/m2
16:54 48.2 °F 33.2 °F 29.74 in East 18 mph 31 mph 56% 0 in 102.00 W/m2
16:59 48.3 °F 33.8 °F 29.74 in ENE 21 mph 31 mph 57% 0 in 105.00 W/m2
17:04 48.3 °F 34.2 °F 29.75 in ENE 23 mph 31 mph 58% 0 in 76.00 W/m2
17:09 48.3 °F 34.2 °F 29.75 in East 17 mph 31 mph 58% 0 in 74.00 W/m2
17:14 47.9 °F 34.7 °F 29.75 in East 19 mph 29 mph 60% 0 in 90.00 W/m2
17:19 47.5 °F 35.1 °F 29.75 in East 15 mph 30 mph 62% 0 in 67.00 W/m2
17:24 47 °F 35.4 °F 29.75 in NE 24 mph 30 mph 64% 0 in 67.00 W/m2
17:29 46.9 °F 35.7 °F 29.75 in NE 21 mph 28 mph 65% 0 in 79.00 W/m2
17:34 46.9 °F 36.1 °F 29.74 in ENE 15 mph 28 mph 66% 0 in 83.00 W/m2
17:39 47.1 °F 36.3 °F 29.74 in East 11 mph 26 mph 66% 0 in 83.00 W/m2
17:44 47.3 °F 36.1 °F 29.73 in ENE 18 mph 26 mph 65% 0 in 98.00 W/m2
17:49 47.3 °F 36.5 °F 29.72 in East 25 mph 29 mph 66% 0 in 120.00 W/m2
17:54 47.5 °F 36.3 °F 29.71 in NE 16 mph 34 mph 65% 0 in 105.00 W/m2
17:59 47.5 °F 36.3 °F 29.70 in NE 20 mph 34 mph 65% 0 in 90.00 W/m2
18:04 47.3 °F 36.1 °F 29.68 in NE 21 mph 34 mph 65% 0 in 70.00 W/m2
18:09 47.4 °F 35.8 °F 29.70 in ENE 28 mph 34 mph 64% 0 in 67.00 W/m2
18:14 47.6 °F 35.6 °F 29.73 in ENE 17 mph 34 mph 63% 0 in 70.00 W/m2
18:19 47.7 °F 35.7 °F 29.73 in ENE 11 mph 28 mph 63% 0 in 69.00 W/m2
18:24 47.7 °F 35.7 °F 29.73 in ENE 10 mph 25 mph 63% 0 in 76.00 W/m2
18:29 47.7 °F 36.1 °F 29.72 in ENE 13 mph 25 mph 64% 0 in 97.00 W/m2
18:34 47.8 °F 36.2 °F 29.72 in East 12 mph 24 mph 64% 0 in 76.00 W/m2
18:39 47.8 °F 35.8 °F 29.72 in ENE 20 mph 24 mph 63% 0 in 51.00 W/m2
18:44 47.9 °F 35.9 °F 29.72 in NE 13 mph 21 mph 63% 0 in 40.00 W/m2
18:49 48 °F 35.6 °F 29.71 in NE 21 mph 24 mph 62% 0 in 33.00 W/m2
18:54 48.1 °F 35.7 °F 29.71 in NE 18 mph 24 mph 62% 0 in 33.00 W/m2
18:59 48 °F 35.6 °F 29.70 in ENE 16 mph 26 mph 62% 0 in 25.00 W/m2
19:04 47.8 °F 35.8 °F 29.71 in NE 12 mph 26 mph 63% 0 in 16.00 W/m2
19:09 47.5 °F 35.9 °F 29.70 in NE 13 mph 22 mph 64% 0 in 14.00 W/m2
19:14 47.2 °F 36.4 °F 29.71 in ENE 9 mph 23 mph 66% 0.01 in 14.00 W/m2
19:19 46.8 °F 36.8 °F 29.72 in SE 12 mph 24 mph 68% 0.02 in 11.00 W/m2
19:24 46.1 °F 37.2 °F 29.71 in NE 14 mph 24 mph 71% 0.03 in 9.00 W/m2
19:29 45.5 °F 37.7 °F 29.71 in ENE 17 mph 24 mph 74% 0.05 in 7.00 W/m2
19:34 45 °F 37.9 °F 29.71 in ENE 13 mph 24 mph 76% 0.06 in 7.00 W/m2
19:39 44.7 °F 37.9 °F 29.69 in NE 20 mph 28 mph 77% 0.07 in 7.00 W/m2
19:44 44.5 °F 38.1 °F 29.66 in NE 28 mph 30 mph 78% 0.07 in 11.00 W/m2
19:49 44.4 °F 38 °F 29.64 in NE 28 mph 38 mph 78% 0.08 in 16.00 W/m2
19:54 44.2 °F 38.1 °F 29.65 in NNE 20 mph 38 mph 79% 0.09 in 14.00 W/m2
19:59 44.2 °F 38.1 °F 29.66 in East 18 mph 33 mph 79% 0.1 in 7.00 W/m2
20:04 44.5 °F 38.1 °F 29.67 in NE 20 mph 33 mph 78% 0.1 in 0.00 W/m2
20:09 44.7 °F 37.9 °F 29.73 in North 3 mph 31 mph 77% 0.1 in 0.00 W/m2
20:14 45 °F 38.2 °F 29.77 in WSW 11 mph 31 mph 77% 0.09 in 0.00 W/m2
20:19 44.4 °F 38.6 °F 29.78 in WSW 22 mph 31 mph 80% 0.08 in 0.00 W/m2
20:24 44.5 °F 38.4 °F 29.79 in NNW 9 mph 30 mph 79% 0.07 in 5.00 W/m2
20:29 44.6 °F 38.2 °F 29.79 in NW 7 mph 24 mph 78% 0.06 in 0.00 W/m2
20:34 43.8 °F 37.1 °F 29.81 in WSW 11 mph 24 mph 77% 0.1 in 0.00 W/m2
20:39 42.6 °F 37.5 °F 29.80 in North 5 mph 24 mph 82% 0.12 in 0.00 W/m2
20:44 42.1 °F 37.6 °F 29.80 in North 9 mph 18 mph 84% 0.13 in 0.00 W/m2
20:49 41.9 °F 37.7 °F 29.79 in NNW 10 mph 18 mph 85% 0.11 in 0.00 W/m2
20:54 41.6 °F 37.7 °F 29.79 in NNE 9 mph 14 mph 86% 0.12 in 0.00 W/m2
20:59 41.7 °F 38.1 °F 29.76 in NNE 14 mph 18 mph 87% 0.12 in 0.00 W/m2
21:04 41.9 °F 38.3 °F 29.76 in NNE 16 mph 20 mph 87% 0.13 in 0.00 W/m2
21:09 42.2 °F 38.6 °F 29.75 in North 14 mph 22 mph 87% 0.13 in 0.00 W/m2
21:14 42.4 °F 38.5 °F 29.77 in NE 13 mph 22 mph 86% 0.15 in 0.00 W/m2
21:19 42.7 °F 38.5 °F 29.78 in NE 10 mph 21 mph 85% 0.16 in 0.00 W/m2
21:24 42.8 °F 38.6 °F 29.78 in NE 9 mph 21 mph 85% 0.17 in 0.00 W/m2
21:29 42.7 °F 38.2 °F 29.78 in NE 6 mph 21 mph 84% 0.16 in 0.00 W/m2
21:34 42.6 °F 38.4 °F 29.78 in NE 10 mph 18 mph 85% 0.11 in 0.00 W/m2
21:39 42.6 °F 38.1 °F 29.77 in NE 11 mph 18 mph 84% 0.09 in 0.00 W/m2
21:44 42.6 °F 38.4 °F 29.77 in NNE 10 mph 17 mph 85% 0.08 in 0.00 W/m2
21:49 42.5 °F 38.3 °F 29.77 in NE 12 mph 18 mph 85% 0.09 in 0.00 W/m2
21:54 42.4 °F 38.2 °F 29.77 in NE 14 mph 20 mph 85% 0.08 in 0.00 W/m2
21:59 42.4 °F 38.2 °F 29.78 in NE 18 mph 20 mph 85% 0.07 in 0.00 W/m2
22:04 42.4 °F 38.2 °F 29.78 in NE 9 mph 20 mph 85% 0.06 in 0.00 W/m2
22:09 42.4 °F 38.2 °F 29.79 in NE 12 mph 20 mph 85% 0.05 in 0.00 W/m2
22:14 42.4 °F 38.2 °F 29.79 in NNE 16 mph 16 mph 85% 0.04 in 0.00 W/m2
22:19 42.5 °F 38.3 °F 29.77 in NE 7 mph 17 mph 85% 0.03 in 0.00 W/m2
22:24 42.5 °F 38.3 °F 29.77 in NE 19 mph 21 mph 85% 0.02 in 0.00 W/m2
22:29 42.6 °F 38.4 °F 29.78 in NNE 10 mph 21 mph 85% 0.01 in 0.00 W/m2
22:34 42.7 °F 38.5 °F 29.79 in NNE 10 mph 21 mph 85% 0.01 in 0.00 W/m2
22:39 42.8 °F 38.3 °F 29.80 in NNE 6 mph 21 mph 84% 0.01 in 0.00 W/m2
22:44 42.9 °F 38.4 °F 29.80 in NNE 9 mph 19 mph 84% 0.01 in 0.00 W/m2
22:49 42.9 °F 38.1 °F 29.80 in NE 12 mph 19 mph 83% 0 in 0.00 W/m2
22:54 42.9 °F 38.1 °F 29.79 in NE 16 mph 19 mph 83% 0.01 in 0.00 W/m2
22:59 42.7 °F 38.2 °F 29.80 in NNE 10 mph 20 mph 84% 0.01 in 0.00 W/m2
23:04 42.6 °F 38.1 °F 29.80 in NE 10 mph 20 mph 84% 0.02 in 0.00 W/m2
23:09 42.5 °F 38.3 °F 29.80 in NE 10 mph 20 mph 85% 0.02 in 0.00 W/m2
23:14 42.4 °F 38.2 °F 29.80 in NNE 13 mph 20 mph 85% 0.02 in 0.00 W/m2
23:19 42.3 °F 38.1 °F 29.80 in NNE 12 mph 17 mph 85% 0.03 in 0.00 W/m2
23:24 42.2 °F 38.3 °F 29.80 in NNE 8 mph 18 mph 86% 0.03 in 0.00 W/m2
23:29 42.2 °F 38.3 °F 29.80 in NE 10 mph 18 mph 86% 0.03 in 0.00 W/m2
23:34 42.1 °F 38.2 °F 29.79 in NE 11 mph 18 mph 86% 0.03 in 0.00 W/m2
23:39 42.1 °F 38.5 °F 29.79 in NE 12 mph 18 mph 87% 0.03 in 0.00 W/m2
23:44 42 °F 38.4 °F 29.78 in NE 12 mph 20 mph 87% 0.03 in 0.00 W/m2
23:49 42.1 °F 38.5 °F 29.77 in NNE 16 mph 25 mph 87% 0.04 in 0.00 W/m2
23:54 42.1 °F 38.5 °F 29.77 in NE 17 mph 25 mph 87% 0.03 in 0.00 W/m2
23:59 42.1 °F 38.5 °F 29.77 in NNE 13 mph 22 mph 87% 0.03 in 0.00 W/m2
Bismarck, North Dakota, USA
Compliments of Weather Underground - 4 mb